Location: Dana
(41.8364°N, 106.7042°W)
Time: 13:54:02
(UTC+00:00)

Vanguard 3 - Pass Details

Date: 17 May 2026
Orbit: 507 x 3204 km, 33.3° (Epoch: 8 June)

Event Time Altitude Azimuth Distance (km) Brightness Sun altitude
Rises 20:05:11 0° 237° (WSW) 6,264 12.0 64.1°
Reaches altitude 10° 20:09:01 10° 233° (SW) 5,516 11.9 63.6°
Maximum altitude 20:26:22 57° 161° (SSE) 3,577 11.6 61.5°
Drops below altitude 10° 20:44:16 10° 90° (E) 5,681 11.3 59.1°
Sets 20:48:16 0° 87° (E) 6,455 11.5 58.5°
